sat.trackr.live / text

‹ back to catalog

STARLINK-5030

NORAD 55418 · 2023-014AD

PAYLOAD ACTIVE UNKNOWN

§ Identity

Operator
Country
US
Launch date
2023-01-31
Launch site
AFWTR
Launch vehicle
Mass (kg)
RCS (m²)

Purposes: comms

External: N2YO · Heavens-Above · Gunter

§ Orbital elements

Epoch: 2026-05-24T19:22:44.598432Z

Period
96.11 min
Inclination
69.9982°
Eccentricity
0.0003260
Mean motion
14.98339022 rev/d
Perigee alt
569.8 km
Apogee alt
574.3 km
Semi-major
6,950.2 km
B*
-3.8141e-5
RAAN
252.5416°
Arg perigee
264.6775°
Mean anomaly
95.4012°
Rev number
18,296

§ Raw data

STARLINK-50301 55418U 23014AD  26144.80746063 -.00000548  00000+0 -38141-4 0  99932 55418  69.9982 252.5416 0003260 264.6775  95.4012 14.98339022182969

JSON: /api/v1/satellites/55418 · /tle

For live sub-satellite position, see the globe view (requires WebGL).

§ Visibility from observer

Set your observer location to see the next 7 days of passes ≥ 10°. The values pass through the URL so the page stays shareable.

No JS? Fill the form by hand. The geolocation button needs JavaScript.